Time,TemperatureF,DewpointF,PressureIn,WindDirection,WindDirectionDegrees,WindSpeedMPH,WindSpeedGustMPH,Humidity,HourlyPrecipIn,Conditions,Clouds,dailyrainin,SoftwareType,DateUTC
2013-02-20 00:02:00,38.5,35.8,30.13,NE,45,4.0,5.0,90,0.00,,,0.01,meteohub,2013-02-20 00:02:00,
2013-02-20 00:07:00,38.5,36.1,30.13,NE,45,5.0,6.0,91,0.00,,,0.00,meteohub,2013-02-20 00:07:00,
2013-02-20 00:12:00,38.7,36.3,30.13,ENE,68,6.0,6.0,91,0.00,,,0.00,meteohub,2013-02-20 00:12:00,
2013-02-20 00:17:00,38.7,36.3,30.13,East,90,4.0,6.0,91,0.00,,,0.00,meteohub,2013-02-20 00:17:00,
2013-02-20 00:22:00,38.8,36.5,30.13,East,90,4.0,6.0,91,0.00,,,0.00,meteohub,2013-02-20 00:22:00,
2013-02-20 00:27:00,38.8,36.5,30.13,East,90,5.0,6.0,91,0.00,,,0.00,meteohub,2013-02-20 00:27:00,
2013-02-20 00:32:00,38.8,36.7,30.13,ENE,68,3.0,8.0,92,0.00,,,0.00,meteohub,2013-02-20 00:32:00,
2013-02-20 00:37:00,39.0,36.9,30.13,East,90,8.0,9.0,92,0.00,,,0.00,meteohub,2013-02-20 00:37:00,
2013-02-20 00:42:00,39.0,36.9,30.13,NE,45,6.0,9.0,92,0.00,,,0.00,meteohub,2013-02-20 00:42:00,
2013-02-20 00:47:00,39.2,37.0,30.13,ENE,68,6.0,11.0,92,0.00,,,0.00,meteohub,2013-02-20 00:47:00,
2013-02-20 00:52:00,39.2,37.0,30.16,East,90,4.0,11.0,92,0.00,,,0.00,meteohub,2013-02-20 00:52:00,
2013-02-20 00:57:00,39.2,37.0,30.16,ENE,68,6.0,11.0,92,0.00,,,0.00,meteohub,2013-02-20 00:57:00,
2013-02-20 01:03:00,39.2,37.0,30.16,ENE,68,3.0,11.0,92,0.00,,,0.00,meteohub,2013-02-20 01:03:00,
2013-02-20 01:08:00,39.2,37.0,30.16,East,90,4.0,8.0,92,0.00,,,0.00,meteohub,2013-02-20 01:08:00,
2013-02-20 01:13:00,39.4,37.2,30.16,ENE,68,6.0,8.0,92,0.00,,,0.00,meteohub,2013-02-20 01:13:00,
2013-02-20 01:18:00,39.4,37.2,30.16,NE,45,7.0,7.0,92,0.00,,,0.00,meteohub,2013-02-20 01:18:00,
2013-02-20 01:23:00,39.4,37.6,30.16,East,90,6.0,10.0,93,0.00,,,0.00,meteohub,2013-02-20 01:23:00,
2013-02-20 01:28:00,39.4,37.6,30.16,ENE,68,10.0,10.0,93,0.00,,,0.00,meteohub,2013-02-20 01:28:00,
2013-02-20 01:33:00,39.4,37.6,30.16,ENE,68,6.0,10.0,93,0.00,,,0.00,meteohub,2013-02-20 01:33:00,
2013-02-20 01:39:00,39.4,37.6,30.16,East,90,6.0,10.0,93,0.00,,,0.00,meteohub,2013-02-20 01:39:00,
2013-02-20 01:44:00,39.4,37.6,30.16,ENE,68,9.0,10.0,93,0.00,,,0.00,meteohub,2013-02-20 01:44:00,
2013-02-20 01:49:00,39.4,37.6,30.16,ENE,68,5.0,10.0,93,0.00,,,0.00,meteohub,2013-02-20 01:49:00,
2013-02-20 01:54:00,39.4,37.6,30.16,NE,45,9.0,10.0,93,0.00,,,0.00,meteohub,2013-02-20 01:54:00,
2013-02-20 01:59:00,39.4,37.8,30.16,NE,45,7.0,10.0,94,0.00,,,0.00,meteohub,2013-02-20 01:59:00,
2013-02-20 02:04:00,39.4,37.8,30.16,NE,45,6.0,10.0,94,0.00,,,0.00,meteohub,2013-02-20 02:04:00,
2013-02-20 02:09:00,39.4,37.8,30.16,ESE,112,9.0,10.0,94,0.00,,,0.00,meteohub,2013-02-20 02:09:00,
2013-02-20 02:14:00,39.4,37.8,30.16,NE,45,6.0,9.0,94,0.00,,,0.00,meteohub,2013-02-20 02:14:00,
2013-02-20 02:19:00,39.6,37.9,30.16,NE,45,6.0,9.0,94,0.00,,,0.00,meteohub,2013-02-20 02:19:00,
2013-02-20 02:24:00,39.6,37.9,30.16,ENE,68,11.0,11.0,94,0.00,,,0.00,meteohub,2013-02-20 02:24:00,
2013-02-20 02:29:00,39.7,38.5,30.16,NE,45,9.0,11.0,95,0.00,,,0.00,meteohub,2013-02-20 02:29:00,
2013-02-20 02:34:00,39.7,38.5,30.16,ENE,68,8.0,12.0,95,0.00,,,0.00,meteohub,2013-02-20 02:34:00,
2013-02-20 02:39:00,39.9,38.7,30.16,NE,45,9.0,12.0,95,0.00,,,0.00,meteohub,2013-02-20 02:39:00,
2013-02-20 02:45:00,39.9,38.7,30.16,ENE,68,10.0,12.0,95,0.00,,,0.00,meteohub,2013-02-20 02:45:00,
2013-02-20 02:50:00,39.9,38.8,30.16,East,90,6.0,11.0,96,0.00,,,0.00,meteohub,2013-02-20 02:50:00,
2013-02-20 02:55:00,40.1,39.0,30.16,ENE,68,8.0,11.0,96,0.00,,,0.00,meteohub,2013-02-20 02:55:00,
2013-02-20 03:00:00,40.1,38.8,30.16,East,90,6.0,11.0,95,0.00,,,0.00,meteohub,2013-02-20 03:00:00,
2013-02-20 03:05:00,40.1,38.8,30.16,East,90,8.0,11.0,95,0.00,,,0.00,meteohub,2013-02-20 03:05:00,
2013-02-20 03:10:00,40.3,39.0,30.16,East,90,9.0,11.0,95,0.00,,,0.00,meteohub,2013-02-20 03:10:00,
2013-02-20 03:15:00,40.3,39.2,30.16,East,90,9.0,13.0,96,0.00,,,0.00,meteohub,2013-02-20 03:15:00,
2013-02-20 03:20:00,40.3,39.2,30.16,East,90,10.0,13.0,96,0.00,,,0.00,meteohub,2013-02-20 03:20:00,
2013-02-20 03:25:00,40.3,39.2,30.16,East,90,6.0,13.0,96,0.00,,,0.00,meteohub,2013-02-20 03:25:00,
2013-02-20 03:30:00,40.3,39.0,30.16,East,90,9.0,12.0,95,0.00,,,0.00,meteohub,2013-02-20 03:30:00,
2013-02-20 03:35:00,40.3,39.0,30.16,East,90,6.0,11.0,95,0.00,,,0.00,meteohub,2013-02-20 03:35:00,
2013-02-20 03:40:00,40.3,39.0,30.16,East,90,11.0,11.0,95,0.00,,,0.00,meteohub,2013-02-20 03:40:00,
2013-02-20 03:45:00,40.3,39.0,30.16,East,90,8.0,11.0,95,0.00,,,0.00,meteohub,2013-02-20 03:45:00,
2013-02-20 03:50:00,40.3,39.0,30.16,East,90,7.0,11.0,95,0.00,,,0.00,meteohub,2013-02-20 03:50:00,
2013-02-20 03:56:00,40.3,39.0,30.16,ENE,68,5.0,11.0,95,0.00,,,0.00,meteohub,2013-02-20 03:56:00,
2013-02-20 04:01:00,40.3,39.0,30.16,East,90,8.0,10.0,95,0.00,,,0.00,meteohub,2013-02-20 04:01:00,
2013-02-20 04:06:00,40.3,39.0,30.16,ENE,68,6.0,10.0,95,0.00,,,0.00,meteohub,2013-02-20 04:06:00,
2013-02-20 04:11:00,40.3,39.0,30.16,East,90,8.0,10.0,95,0.00,,,0.00,meteohub,2013-02-20 04:11:00,
2013-02-20 04:16:00,40.3,39.0,30.16,East,90,7.0,10.0,95,0.00,,,0.00,meteohub,2013-02-20 04:16:00,
2013-02-20 04:21:00,40.3,39.0,30.16,East,90,6.0,10.0,95,0.00,,,0.00,meteohub,2013-02-20 04:21:00,
2013-02-20 04:26:00,40.3,39.0,30.16,East,90,7.0,10.0,95,0.00,,,0.00,meteohub,2013-02-20 04:26:00,
2013-02-20 04:31:00,40.3,39.0,30.16,East,90,6.0,10.0,95,0.00,,,0.00,meteohub,2013-02-20 04:31:00,
2013-02-20 04:36:00,40.3,39.0,30.16,East,90,11.0,11.0,95,0.00,,,0.00,meteohub,2013-02-20 04:36:00,
2013-02-20 04:41:00,40.3,39.0,30.16,East,90,9.0,12.0,95,0.00,,,0.00,meteohub,2013-02-20 04:41:00,
2013-02-20 04:46:00,40.3,39.0,30.16,East,90,7.0,12.0,95,0.00,,,0.00,meteohub,2013-02-20 04:46:00,
2013-02-20 04:51:00,40.3,39.0,30.16,East,90,8.0,12.0,95,0.00,,,0.00,meteohub,2013-02-20 04:51:00,
2013-02-20 04:56:00,40.3,38.7,30.16,East,90,9.0,10.0,94,0.00,,,0.00,meteohub,2013-02-20 04:56:00,
2013-02-20 05:00:00,40.3,38.7,30.16,East,90,7.0,10.0,94,0.00,,,0.00,meteohub,2013-02-20 05:00:00,
2013-02-20 05:01:00,40.3,38.7,30.16,East,90,11.0,11.0,94,0.00,,,0.00,meteohub,2013-02-20 05:01:00,
2013-02-20 05:03:00,40.3,38.7,30.16,East,90,7.0,10.0,94,0.00,,,0.00,meteohub,2013-02-20 05:03:00,
2013-02-20 05:05:00,40.3,38.7,30.16,East,90,9.0,11.0,94,0.00,,,0.00,meteohub,2013-02-20 05:05:00,
2013-02-20 05:11:00,40.3,38.7,30.16,East,90,9.0,11.0,94,0.00,,,0.00,meteohub,2013-02-20 05:11:00,
2013-02-20 05:16:00,40.3,38.7,30.16,ESE,112,9.0,11.0,94,0.00,,,0.00,meteohub,2013-02-20 05:16:00,
2013-02-20 05:21:00,40.3,38.7,30.16,East,90,6.0,11.0,94,0.00,,,0.00,meteohub,2013-02-20 05:21:00,
2013-02-20 05:26:00,40.3,38.7,30.16,SE,135,8.0,11.0,94,0.00,,,0.00,meteohub,2013-02-20 05:26:00,
2013-02-20 05:31:00,40.3,38.7,30.16,SE,135,6.0,11.0,94,0.00,,,0.00,meteohub,2013-02-20 05:31:00,
2013-02-20 05:36:00,40.3,38.7,30.19,East,90,6.0,10.0,94,0.00,,,0.00,meteohub,2013-02-20 05:36:00,
2013-02-20 05:41:00,40.3,38.7,30.19,East,90,5.0,8.0,94,0.00,,,0.00,meteohub,2013-02-20 05:41:00,
2013-02-20 05:46:00,40.3,38.7,30.19,ESE,112,5.0,7.0,94,0.00,,,0.00,meteohub,2013-02-20 05:46:00,
2013-02-20 05:51:00,40.3,38.5,30.16,ESE,112,6.0,7.0,93,0.00,,,0.00,meteohub,2013-02-20 05:51:00,
2013-02-20 05:56:00,40.3,38.5,30.16,East,90,4.0,7.0,93,0.00,,,0.00,meteohub,2013-02-20 05:56:00,
2013-02-20 06:01:00,40.3,38.5,30.16,ESE,112,4.0,8.0,93,0.00,,,0.00,meteohub,2013-02-20 06:01:00,
2013-02-20 06:06:00,40.3,38.5,30.19,ESE,112,4.0,8.0,93,0.00,,,0.00,meteohub,2013-02-20 06:06:00,
2013-02-20 06:12:00,40.3,38.5,30.19,East,90,6.0,8.0,93,0.00,,,0.00,meteohub,2013-02-20 06:12:00,
2013-02-20 06:17:00,40.3,38.5,30.19,East,90,7.0,8.0,93,0.00,,,0.00,meteohub,2013-02-20 06:17:00,
2013-02-20 06:22:00,40.5,38.7,30.19,East,90,6.0,10.0,93,0.00,,,0.00,meteohub,2013-02-20 06:22:00,
2013-02-20 06:27:00,40.5,38.3,30.19,East,90,7.0,10.0,92,0.00,,,0.00,meteohub,2013-02-20 06:27:00,
2013-02-20 06:32:00,40.5,38.3,30.19,East,90,4.0,10.0,92,0.00,,,0.00,meteohub,2013-02-20 06:32:00,
2013-02-20 06:37:00,40.5,38.3,30.19,East,90,5.0,9.0,92,0.00,,,0.00,meteohub,2013-02-20 06:37:00,
2013-02-20 06:42:00,40.5,38.3,30.19,East,90,4.0,9.0,92,0.00,,,0.00,meteohub,2013-02-20 06:42:00,
2013-02-20 06:47:00,40.5,38.3,30.19,East,90,6.0,9.0,92,0.00,,,0.00,meteohub,2013-02-20 06:47:00,
2013-02-20 06:52:00,40.5,38.3,30.19,East,90,5.0,9.0,92,0.00,,,0.00,meteohub,2013-02-20 06:52:00,
2013-02-20 06:57:00,40.6,38.3,30.19,East,90,5.0,9.0,91,0.00,,,0.00,meteohub,2013-02-20 06:57:00,
2013-02-20 07:02:00,40.6,38.3,30.19,East,90,7.0,9.0,91,0.00,,,0.00,meteohub,2013-02-20 07:02:00,
2013-02-20 07:07:00,40.6,38.3,30.19,East,90,8.0,8.0,91,0.00,,,0.00,meteohub,2013-02-20 07:07:00,
2013-02-20 07:12:00,40.6,38.3,30.19,East,90,5.0,8.0,91,0.00,,,0.00,meteohub,2013-02-20 07:12:00,
2013-02-20 07:18:00,40.6,38.3,30.19,East,90,7.0,8.0,91,0.00,,,0.00,meteohub,2013-02-20 07:18:00,
2013-02-20 07:23:00,40.6,38.3,30.19,East,90,9.0,10.0,91,0.00,,,0.00,meteohub,2013-02-20 07:23:00,
2013-02-20 07:28:00,40.6,37.9,30.19,East,90,10.0,13.0,90,0.00,,,0.00,meteohub,2013-02-20 07:28:00,
2013-02-20 07:33:00,40.6,37.9,30.19,East,90,7.0,13.0,90,0.00,,,0.00,meteohub,2013-02-20 07:33:00,
2013-02-20 07:38:00,40.8,38.1,30.19,ENE,68,8.0,13.0,90,0.00,,,0.00,meteohub,2013-02-20 07:38:00,
2013-02-20 07:43:00,40.8,37.8,30.19,East,90,9.0,13.0,89,0.00,,,0.00,meteohub,2013-02-20 07:43:00,
2013-02-20 07:48:00,40.8,37.8,30.19,East,90,10.0,13.0,89,0.00,,,0.00,meteohub,2013-02-20 07:48:00,
2013-02-20 07:53:00,40.8,37.8,30.19,East,90,8.0,13.0,89,0.00,,,0.00,meteohub,2013-02-20 07:53:00,
2013-02-20 07:58:00,40.8,37.8,30.19,East,90,11.0,13.0,89,0.00,,,0.00,meteohub,2013-02-20 07:58:00,
2013-02-20 08:05:00,41.0,37.8,30.19,East,90,8.0,11.0,88,0.00,,,0.00,meteohub,2013-02-20 08:05:00,
2013-02-20 08:10:00,41.0,37.8,30.19,ESE,112,11.0,13.0,88,0.00,,,0.00,meteohub,2013-02-20 08:10:00,
2013-02-20 08:15:00,41.0,37.8,30.19,East,90,11.0,13.0,88,0.00,,,0.00,meteohub,2013-02-20 08:15:00,
2013-02-20 08:20:00,41.0,37.8,30.22,ENE,68,7.0,13.0,88,0.00,,,0.00,meteohub,2013-02-20 08:20:00,
2013-02-20 08:25:00,41.0,37.8,30.22,East,90,7.0,12.0,88,0.00,,,0.00,meteohub,2013-02-20 08:25:00,
2013-02-20 08:31:00,41.0,37.8,30.22,East,90,8.0,12.0,88,0.00,,,0.00,meteohub,2013-02-20 08:31:00,
2013-02-20 08:36:00,41.0,37.8,30.19,East,90,6.0,12.0,88,0.00,,,0.00,meteohub,2013-02-20 08:36:00,
2013-02-20 08:41:00,41.0,37.8,30.19,ENE,68,8.0,11.0,88,0.00,,,0.00,meteohub,2013-02-20 08:41:00,
2013-02-20 08:46:00,41.0,37.8,30.19,East,90,8.0,11.0,88,0.00,,,0.00,meteohub,2013-02-20 08:46:00,
2013-02-20 08:51:00,41.0,37.8,30.19,East,90,8.0,13.0,88,0.00,,,0.00,meteohub,2013-02-20 08:51:00,
2013-02-20 08:56:00,41.2,37.9,30.19,East,90,10.0,13.0,88,0.00,,,0.00,meteohub,2013-02-20 08:56:00,
2013-02-20 09:01:00,41.2,37.9,30.19,East,90,11.0,13.0,88,0.00,,,0.00,meteohub,2013-02-20 09:01:00,
2013-02-20 09:06:00,41.4,38.1,30.22,ENE,68,10.0,13.0,88,0.00,,,0.00,meteohub,2013-02-20 09:06:00,
2013-02-20 09:11:00,41.2,37.9,30.22,East,90,11.0,14.0,88,0.00,,,0.00,meteohub,2013-02-20 09:11:00,
2013-02-20 09:16:00,41.2,37.6,30.22,East,90,11.0,14.0,87,0.00,,,0.00,meteohub,2013-02-20 09:16:00,
2013-02-20 09:21:00,41.0,37.4,30.22,East,90,13.0,14.0,87,0.00,,,0.00,meteohub,2013-02-20 09:21:00,
2013-02-20 09:26:00,41.0,37.4,30.22,East,90,6.0,13.0,87,0.00,,,0.00,meteohub,2013-02-20 09:26:00,
2013-02-20 09:31:00,41.0,37.2,30.22,East,90,12.0,13.0,86,0.00,,,0.00,meteohub,2013-02-20 09:31:00,
2013-02-20 09:36:00,41.0,37.2,30.22,ESE,112,13.0,13.0,86,0.00,,,0.00,meteohub,2013-02-20 09:36:00,
2013-02-20 09:41:00,41.0,37.2,30.22,East,90,6.0,17.0,86,0.00,,,0.00,meteohub,2013-02-20 09:41:00,
2013-02-20 09:46:00,41.2,37.4,30.22,East,90,11.0,17.0,86,0.00,,,0.00,meteohub,2013-02-20 09:46:00,
2013-02-20 09:52:00,41.0,36.9,30.22,East,90,12.0,17.0,85,0.00,,,0.00,meteohub,2013-02-20 09:52:00,
2013-02-20 09:57:00,41.0,36.5,30.22,East,90,12.0,17.0,84,0.00,,,0.00,meteohub,2013-02-20 09:57:00,
2013-02-20 10:02:00,41.0,36.3,30.22,East,90,10.0,17.0,83,0.00,,,0.00,meteohub,2013-02-20 10:02:00,
2013-02-20 10:07:00,41.0,36.3,30.22,East,90,13.0,19.0,83,0.00,,,0.00,meteohub,2013-02-20 10:07:00,
2013-02-20 10:12:00,41.0,36.0,30.22,East,90,15.0,19.0,82,0.00,,,0.00,meteohub,2013-02-20 10:12:00,
2013-02-20 10:17:00,41.0,36.0,30.22,East,90,15.0,19.0,82,0.00,,,0.00,meteohub,2013-02-20 10:17:00,
2013-02-20 10:22:00,41.0,36.0,30.22,East,90,11.0,19.0,82,0.00,,,0.00,meteohub,2013-02-20 10:22:00,
2013-02-20 10:27:00,41.0,35.6,30.22,ESE,112,12.0,19.0,81,0.00,,,0.00,meteohub,2013-02-20 10:27:00,
2013-02-20 10:32:00,41.0,35.6,30.22,East,90,15.0,17.0,81,0.00,,,0.00,meteohub,2013-02-20 10:32:00,
2013-02-20 10:37:00,40.8,35.1,30.25,East,90,15.0,20.0,80,0.00,,,0.00,meteohub,2013-02-20 10:37:00,
2013-02-20 10:42:00,40.6,34.9,30.25,East,90,15.0,20.0,80,0.00,,,0.00,meteohub,2013-02-20 10:42:00,
2013-02-20 10:47:00,40.6,34.7,30.25,East,90,10.0,20.0,79,0.00,,,0.00,meteohub,2013-02-20 10:47:00,
2013-02-20 10:52:00,40.8,35.1,30.22,SE,135,10.0,20.0,80,0.00,,,0.00,meteohub,2013-02-20 10:52:00,
2013-02-20 10:57:00,40.6,34.9,30.22,East,90,9.0,20.0,80,0.00,,,0.00,meteohub,2013-02-20 10:57:00,
2013-02-20 11:02:00,40.6,34.9,30.22,East,90,15.0,16.0,80,0.00,,,0.00,meteohub,2013-02-20 11:02:00,
2013-02-20 11:07:00,40.8,35.1,30.25,East,90,14.0,16.0,80,0.00,,,0.00,meteohub,2013-02-20 11:07:00,
2013-02-20 11:13:00,41.0,35.1,30.25,ESE,112,13.0,16.0,79,0.00,,,0.00,meteohub,2013-02-20 11:13:00,
2013-02-20 11:18:00,40.8,35.1,30.25,East,90,11.0,15.0,80,0.00,,,0.00,meteohub,2013-02-20 11:18:00,
2013-02-20 11:23:00,41.0,35.1,30.25,ESE,112,11.0,15.0,79,0.00,,,0.00,meteohub,2013-02-20 11:23:00,
2013-02-20 11:28:00,40.8,34.9,30.25,East,90,17.0,17.0,79,0.00,,,0.00,meteohub,2013-02-20 11:28:00,
2013-02-20 11:33:00,40.6,34.3,30.25,ESE,112,10.0,19.0,78,0.00,,,0.00,meteohub,2013-02-20 11:33:00,
2013-02-20 11:38:00,40.6,34.3,30.25,East,90,11.0,19.0,78,0.00,,,0.00,meteohub,2013-02-20 11:38:00,
2013-02-20 11:43:00,40.6,34.3,30.25,ESE,112,9.0,19.0,78,0.00,,,0.00,meteohub,2013-02-20 11:43:00,
2013-02-20 11:48:00,40.5,34.2,30.25,East,90,13.0,18.0,78,0.00,,,0.00,meteohub,2013-02-20 11:48:00,
2013-02-20 11:53:00,40.5,34.2,30.25,East,90,8.0,19.0,78,0.00,,,0.00,meteohub,2013-02-20 11:53:00,
2013-02-20 11:58:00,40.5,34.2,30.25,East,90,12.0,19.0,78,0.00,,,0.00,meteohub,2013-02-20 11:58:00,
2013-02-20 12:03:00,40.5,33.8,30.25,East,90,9.0,19.0,77,0.00,,,0.00,meteohub,2013-02-20 12:03:00,
2013-02-20 12:08:00,40.5,33.4,30.25,East,90,11.0,19.0,76,0.00,,,0.00,meteohub,2013-02-20 12:08:00,
2013-02-20 12:13:00,40.5,33.4,30.25,East,90,14.0,19.0,76,0.00,,,0.00,meteohub,2013-02-20 12:13:00,
2013-02-20 12:18:00,40.3,33.3,30.28,East,90,12.0,19.0,76,0.00,,,0.00,meteohub,2013-02-20 12:18:00,
2013-02-20 12:24:00,40.5,33.8,30.28,East,90,11.0,18.0,77,0.00,,,0.00,meteohub,2013-02-20 12:24:00,
2013-02-20 12:29:00,40.5,33.8,30.28,East,90,13.0,18.0,77,0.00,,,0.00,meteohub,2013-02-20 12:29:00,
2013-02-20 12:34:00,40.5,33.4,30.28,East,90,11.0,15.0,76,0.00,,,0.00,meteohub,2013-02-20 12:34:00,
2013-02-20 12:39:00,40.3,33.3,30.28,East,90,11.0,15.0,76,0.00,,,0.00,meteohub,2013-02-20 12:39:00,
2013-02-20 12:44:00,40.3,33.3,30.28,East,90,14.0,17.0,76,0.00,,,0.00,meteohub,2013-02-20 12:44:00,
2013-02-20 12:49:00,40.3,33.1,30.28,ESE,112,11.0,17.0,75,0.00,,,0.00,meteohub,2013-02-20 12:49:00,
2013-02-20 12:54:00,40.3,33.1,30.28,ESE,112,10.0,17.0,75,0.00,,,0.00,meteohub,2013-02-20 12:54:00,
2013-02-20 12:59:00,40.3,33.1,30.28,East,90,10.0,16.0,75,0.00,,,0.00,meteohub,2013-02-20 12:59:00,
2013-02-20 13:04:00,40.3,33.1,30.28,East,90,10.0,16.0,75,0.00,,,0.00,meteohub,2013-02-20 13:04:00,
2013-02-20 13:09:00,40.3,33.1,30.28,SE,135,13.0,16.0,75,0.00,,,0.00,meteohub,2013-02-20 13:09:00,
2013-02-20 13:14:00,40.3,32.7,30.28,ESE,112,13.0,16.0,74,0.00,,,0.00,meteohub,2013-02-20 13:14:00,
2013-02-20 13:19:00,40.3,32.7,30.28,ESE,112,9.0,16.0,74,0.00,,,0.00,meteohub,2013-02-20 13:19:00,
2013-02-20 13:24:00,40.5,32.9,30.28,SE,135,15.0,15.0,74,0.00,,,0.00,meteohub,2013-02-20 13:24:00,
2013-02-20 13:29:00,40.5,32.5,30.28,East,90,13.0,15.0,73,0.00,,,0.00,meteohub,2013-02-20 13:29:00,
2013-02-20 13:34:00,40.5,32.5,30.28,ESE,112,8.0,15.0,73,0.00,,,0.00,meteohub,2013-02-20 13:34:00,
2013-02-20 13:40:00,40.6,33.1,30.28,SE,135,11.0,15.0,74,0.00,,,0.00,meteohub,2013-02-20 13:40:00,
2013-02-20 13:45:00,40.6,32.7,30.28,ESE,112,11.0,15.0,73,0.00,,,0.00,meteohub,2013-02-20 13:45:00,
2013-02-20 13:50:00,40.6,32.4,30.28,East,90,10.0,13.0,72,0.00,,,0.00,meteohub,2013-02-20 13:50:00,
2013-02-20 13:55:00,40.8,32.9,30.28,SE,135,13.0,13.0,73,0.00,,,0.00,meteohub,2013-02-20 13:55:00,
2013-02-20 14:00:00,41.0,32.7,30.28,SE,135,12.0,13.0,72,0.00,,,0.00,meteohub,2013-02-20 14:00:00,
2013-02-20 14:05:00,41.4,33.4,30.28,East,90,10.0,15.0,73,0.00,,,0.00,meteohub,2013-02-20 14:05:00,
2013-02-20 14:10:00,41.2,32.9,30.28,SE,135,11.0,16.0,72,0.00,,,0.00,meteohub,2013-02-20 14:10:00,
2013-02-20 14:15:00,41.2,32.5,30.28,SE,135,12.0,16.0,71,0.00,,,0.00,meteohub,2013-02-20 14:15:00,
2013-02-20 14:20:00,41.2,32.2,30.28,ESE,112,10.0,16.0,70,0.00,,,0.00,meteohub,2013-02-20 14:20:00,
2013-02-20 14:25:00,41.2,32.2,30.28,SE,135,11.0,16.0,70,0.00,,,0.00,meteohub,2013-02-20 14:25:00,
2013-02-20 14:30:00,41.2,32.2,30.28,ESE,112,15.0,15.0,70,0.00,,,0.00,meteohub,2013-02-20 14:30:00,
2013-02-20 14:35:00,41.0,32.0,30.28,ESE,112,12.0,15.0,70,0.00,,,0.00,meteohub,2013-02-20 14:35:00,
2013-02-20 14:40:00,41.0,31.6,30.28,ESE,112,11.0,16.0,69,0.00,,,0.00,meteohub,2013-02-20 14:40:00,
2013-02-20 14:45:00,41.2,31.8,30.28,SE,135,13.0,16.0,69,0.00,,,0.00,meteohub,2013-02-20 14:45:00,
2013-02-20 14:50:00,41.0,31.6,30.28,SE,135,13.0,16.0,69,0.00,,,0.00,meteohub,2013-02-20 14:50:00,
2013-02-20 14:55:00,41.0,31.3,30.28,SE,135,13.0,15.0,68,0.00,,,0.00,meteohub,2013-02-20 14:55:00,
2013-02-20 15:01:00,40.8,31.1,30.28,ESE,112,18.0,18.0,68,0.00,,,0.00,meteohub,2013-02-20 15:01:00,
2013-02-20 15:06:00,40.6,30.6,30.28,SE,135,15.0,18.0,67,0.00,,,0.00,meteohub,2013-02-20 15:06:00,
2013-02-20 15:11:00,40.6,30.6,30.28,East,90,10.0,18.0,67,0.00,,,0.00,meteohub,2013-02-20 15:11:00,
2013-02-20 15:16:00,40.6,30.6,30.28,ESE,112,10.0,18.0,67,0.00,,,0.00,meteohub,2013-02-20 15:16:00,
2013-02-20 15:21:00,40.6,30.9,30.28,East,90,11.0,18.0,68,0.00,,,0.00,meteohub,2013-02-20 15:21:00,
2013-02-20 15:26:00,40.5,30.4,30.28,East,90,12.0,16.0,67,0.00,,,0.00,meteohub,2013-02-20 15:26:00,
2013-02-20 15:31:00,40.5,30.4,30.28,SE,135,15.0,16.0,67,0.00,,,0.00,meteohub,2013-02-20 15:31:00,
2013-02-20 15:36:00,40.3,30.2,30.28,SSE,158,11.0,18.0,67,0.00,,,0.00,meteohub,2013-02-20 15:36:00,
2013-02-20 15:41:00,40.3,30.6,30.28,East,90,13.0,18.0,68,0.00,,,0.00,meteohub,2013-02-20 15:41:00,
2013-02-20 15:46:00,40.3,30.6,30.28,ESE,112,11.0,18.0,68,0.00,,,0.00,meteohub,2013-02-20 15:46:00,
2013-02-20 15:51:00,40.1,30.0,30.25,ESE,112,12.0,16.0,67,0.00,,,0.00,meteohub,2013-02-20 15:51:00,
2013-02-20 15:56:00,39.9,29.8,30.25,SE,135,9.0,16.0,67,0.00,,,0.00,meteohub,2013-02-20 15:56:00,
2013-02-20 16:01:00,39.9,29.8,30.25,SE,135,10.0,16.0,67,0.00,,,0.00,meteohub,2013-02-20 16:01:00,
2013-02-20 16:06:00,39.7,29.7,30.28,ESE,112,11.0,14.0,67,0.00,,,0.00,meteohub,2013-02-20 16:06:00,
2013-02-20 16:11:00,39.7,30.0,30.28,ESE,112,14.0,14.0,68,0.00,,,0.00,meteohub,2013-02-20 16:11:00,
2013-02-20 16:17:00,39.6,29.8,30.28,ESE,112,13.0,14.0,68,0.00,,,0.00,meteohub,2013-02-20 16:17:00,
2013-02-20 16:22:00,39.6,29.8,30.25,ESE,112,9.0,15.0,68,0.00,,,0.00,meteohub,2013-02-20 16:22:00,
2013-02-20 16:27:00,39.4,29.7,30.25,SE,135,10.0,15.0,68,0.00,,,0.00,meteohub,2013-02-20 16:27:00,
2013-02-20 16:32:00,39.4,29.7,30.25,SE,135,13.0,15.0,68,0.00,,,0.00,meteohub,2013-02-20 16:32:00,
2013-02-20 16:37:00,39.2,29.8,30.25,ESE,112,11.0,16.0,69,0.00,,,0.00,meteohub,2013-02-20 16:37:00,
2013-02-20 16:42:00,39.0,29.7,30.25,ESE,112,13.0,16.0,69,0.00,,,0.00,meteohub,2013-02-20 16:42:00,
2013-02-20 16:47:00,38.8,29.5,30.25,SE,135,12.0,16.0,69,0.00,,,0.00,meteohub,2013-02-20 16:47:00,
2013-02-20 16:52:00,38.7,29.5,30.25,SE,135,12.0,15.0,69,0.00,,,0.00,meteohub,2013-02-20 16:52:00,
2013-02-20 16:57:00,38.7,29.5,30.25,ESE,112,13.0,15.0,69,0.00,,,0.00,meteohub,2013-02-20 16:57:00,
2013-02-20 17:02:00,38.5,29.3,30.25,ESE,112,11.0,15.0,69,0.00,,,0.00,meteohub,2013-02-20 17:02:00,
2013-02-20 17:07:00,38.7,29.7,30.28,ESE,112,13.0,15.0,70,0.00,,,0.00,meteohub,2013-02-20 17:07:00,
2013-02-20 17:12:00,38.3,29.5,30.28,East,90,10.0,15.0,70,0.00,,,0.00,meteohub,2013-02-20 17:12:00,
2013-02-20 17:17:00,38.3,29.1,30.28,East,90,10.0,15.0,69,0.00,,,0.00,meteohub,2013-02-20 17:17:00,
2013-02-20 17:22:00,38.1,28.9,30.28,SE,135,11.0,15.0,69,0.00,,,0.00,meteohub,2013-02-20 17:22:00,
2013-02-20 17:27:00,38.1,28.9,30.28,SE,135,8.0,15.0,69,0.00,,,0.00,meteohub,2013-02-20 17:27:00,
2013-02-20 17:33:00,37.9,28.8,30.28,SE,135,12.0,15.0,69,0.00,,,0.00,meteohub,2013-02-20 17:33:00,
2013-02-20 17:38:00,37.9,28.8,30.28,ESE,112,10.0,15.0,69,0.00,,,0.00,meteohub,2013-02-20 17:38:00,
2013-02-20 17:43:00,37.9,28.8,30.28,ESE,112,10.0,15.0,69,0.00,,,0.00,meteohub,2013-02-20 17:43:00,
2013-02-20 17:48:00,37.8,28.6,30.28,SE,135,9.0,13.0,69,0.00,,,0.00,meteohub,2013-02-20 17:48:00,
2013-02-20 17:53:00,37.6,28.4,30.28,ESE,112,6.0,12.0,69,0.00,,,0.00,meteohub,2013-02-20 17:53:00,
2013-02-20 17:58:00,37.6,28.0,30.28,ESE,112,10.0,13.0,68,0.00,,,0.00,meteohub,2013-02-20 17:58:00,
2013-02-20 18:03:00,37.4,27.5,30.28,ESE,112,12.0,17.0,67,0.00,,,0.00,meteohub,2013-02-20 18:03:00,
2013-02-20 18:08:00,37.4,27.1,30.28,ESE,112,13.0,17.0,66,0.00,,,0.00,meteohub,2013-02-20 18:08:00,
2013-02-20 18:13:00,37.4,27.1,30.28,SE,135,11.0,17.0,66,0.00,,,0.00,meteohub,2013-02-20 18:13:00,
2013-02-20 18:18:00,37.2,26.6,30.28,ESE,112,10.0,16.0,65,0.00,,,0.00,meteohub,2013-02-20 18:18:00,
2013-02-20 18:23:00,37.2,26.6,30.28,East,90,11.0,15.0,65,0.00,,,0.00,meteohub,2013-02-20 18:23:00,
2013-02-20 18:28:00,37.2,26.6,30.28,East,90,8.0,15.0,65,0.00,,,0.00,meteohub,2013-02-20 18:28:00,
2013-02-20 18:33:00,37.0,26.1,30.28,East,90,13.0,15.0,64,0.00,,,0.00,meteohub,2013-02-20 18:33:00,
2013-02-20 18:38:00,37.0,25.7,30.28,ESE,112,17.0,17.0,63,0.00,,,0.00,meteohub,2013-02-20 18:38:00,
2013-02-20 18:44:00,37.0,25.3,30.28,ESE,112,13.0,17.0,62,0.00,,,0.00,meteohub,2013-02-20 18:44:00,
2013-02-20 18:49:00,36.9,25.2,30.28,ESE,112,11.0,17.0,62,0.00,,,0.00,meteohub,2013-02-20 18:49:00,
2013-02-20 18:54:00,36.9,25.2,30.28,ESE,112,11.0,17.0,62,0.00,,,0.00,meteohub,2013-02-20 18:54:00,
2013-02-20 18:59:00,36.9,25.2,30.28,ESE,112,13.0,17.0,62,0.00,,,0.00,meteohub,2013-02-20 18:59:00,
2013-02-20 19:04:00,36.9,25.2,30.28,East,90,13.0,17.0,62,0.00,,,0.00,meteohub,2013-02-20 19:04:00,
2013-02-20 19:09:00,36.9,25.2,30.28,ESE,112,9.0,15.0,62,0.00,,,0.00,meteohub,2013-02-20 19:09:00,
2013-02-20 19:14:00,36.7,25.3,30.28,East,90,7.0,15.0,63,0.00,,,0.00,meteohub,2013-02-20 19:14:00,
2013-02-20 19:19:00,36.7,25.3,30.28,East,90,11.0,15.0,63,0.00,,,0.00,meteohub,2013-02-20 19:19:00,
2013-02-20 19:24:00,36.3,25.0,30.28,East,90,10.0,13.0,63,0.00,,,0.00,meteohub,2013-02-20 19:24:00,
2013-02-20 19:29:00,36.3,25.0,30.28,East,90,12.0,13.0,63,0.00,,,0.00,meteohub,2013-02-20 19:29:00,
2013-02-20 19:34:00,36.1,24.8,30.28,East,90,10.0,15.0,63,0.00,,,0.00,meteohub,2013-02-20 19:34:00,
2013-02-20 19:39:00,36.0,24.6,30.28,East,90,11.0,15.0,63,0.00,,,0.00,meteohub,2013-02-20 19:39:00,
2013-02-20 19:44:00,35.8,24.1,30.28,East,90,9.0,15.0,62,0.00,,,0.00,meteohub,2013-02-20 19:44:00,
2013-02-20 19:49:00,35.6,24.3,30.28,East,90,9.0,13.0,63,0.00,,,0.00,meteohub,2013-02-20 19:49:00,
2013-02-20 19:54:00,35.4,24.1,30.28,East,90,10.0,13.0,63,0.00,,,0.00,meteohub,2013-02-20 19:54:00,
2013-02-20 20:00:00,35.1,23.7,30.28,ESE,112,9.0,11.0,63,0.00,,,0.00,meteohub,2013-02-20 20:00:00,
2013-02-20 20:05:00,34.9,23.5,30.28,ESE,112,10.0,13.0,63,0.00,,,0.00,meteohub,2013-02-20 20:05:00,
2013-02-20 20:10:00,34.7,23.7,30.28,East,90,8.0,13.0,64,0.00,,,0.00,meteohub,2013-02-20 20:10:00,
2013-02-20 20:15:00,34.5,23.7,30.28,East,90,7.0,13.0,64,0.00,,,0.00,meteohub,2013-02-20 20:15:00,
2013-02-20 20:20:00,34.5,24.1,30.28,East,90,6.0,13.0,65,0.00,,,0.00,meteohub,2013-02-20 20:20:00,
2013-02-20 20:25:00,34.3,23.9,30.28,East,90,7.0,11.0,65,0.00,,,0.00,meteohub,2013-02-20 20:25:00,
2013-02-20 20:30:00,34.2,23.7,30.28,East,90,9.0,9.0,65,0.00,,,0.00,meteohub,2013-02-20 20:30:00,
2013-02-20 20:35:00,34.0,23.5,30.31,East,90,10.0,10.0,65,0.00,,,0.00,meteohub,2013-02-20 20:35:00,
2013-02-20 20:40:00,34.0,23.5,30.31,East,90,8.0,10.0,65,0.00,,,0.00,meteohub,2013-02-20 20:40:00,
2013-02-20 20:45:00,33.8,23.4,30.31,ESE,112,11.0,11.0,65,0.00,,,0.00,meteohub,2013-02-20 20:45:00,
2013-02-20 20:50:00,33.8,23.4,30.31,East,90,5.0,11.0,65,0.00,,,0.00,meteohub,2013-02-20 20:50:00,
2013-02-20 20:55:00,33.6,23.5,30.31,East,90,6.0,11.0,66,0.00,,,0.00,meteohub,2013-02-20 20:55:00,
2013-02-20 21:00:00,33.6,23.5,30.31,ENE,68,11.0,11.0,66,0.00,,,0.00,meteohub,2013-02-20 21:00:00,
2013-02-20 21:05:00,33.6,23.5,30.31,East,90,7.0,11.0,66,0.00,,,0.00,meteohub,2013-02-20 21:05:00,
2013-02-20 21:10:00,33.4,23.4,30.31,East,90,6.0,11.0,66,0.00,,,0.00,meteohub,2013-02-20 21:10:00,
2013-02-20 21:16:00,33.4,23.4,30.31,East,90,6.0,11.0,66,0.00,,,0.00,meteohub,2013-02-20 21:16:00,
2013-02-20 21:21:00,33.3,23.5,30.31,ESE,112,10.0,11.0,67,0.00,,,0.00,meteohub,2013-02-20 21:21:00,
2013-02-20 21:26:00,33.4,23.7,30.31,East,90,8.0,11.0,67,0.00,,,0.00,meteohub,2013-02-20 21:26:00,
2013-02-20 21:31:00,33.4,23.7,30.31,East,90,11.0,11.0,67,0.00,,,0.00,meteohub,2013-02-20 21:31:00,
2013-02-20 21:36:00,33.4,23.7,30.28,East,90,10.0,12.0,67,0.00,,,0.00,meteohub,2013-02-20 21:36:00,
2013-02-20 21:41:00,33.4,23.7,30.28,East,90,11.0,13.0,67,0.00,,,0.00,meteohub,2013-02-20 21:41:00,
2013-02-20 21:46:00,33.4,23.7,30.28,East,90,6.0,13.0,67,0.00,,,0.00,meteohub,2013-02-20 21:46:00,
2013-02-20 21:51:00,33.4,23.7,30.31,East,90,6.0,13.0,67,0.00,,,0.00,meteohub,2013-02-20 21:51:00,
2013-02-20 21:56:00,33.3,23.5,30.31,East,90,10.0,12.0,67,0.00,,,0.00,meteohub,2013-02-20 21:56:00,
2013-02-20 22:01:00,33.3,23.5,30.31,East,90,9.0,13.0,67,0.00,,,0.00,meteohub,2013-02-20 22:01:00,
2013-02-20 22:06:00,33.3,23.5,30.31,East,90,6.0,15.0,67,0.00,,,0.00,meteohub,2013-02-20 22:06:00,
2013-02-20 22:12:00,33.3,23.5,30.31,East,90,9.0,15.0,67,0.00,,,0.00,meteohub,2013-02-20 22:12:00,
2013-02-20 22:17:00,33.3,23.5,30.31,East,90,8.0,15.0,67,0.00,,,0.00,meteohub,2013-02-20 22:17:00,
2013-02-20 22:22:00,33.1,23.4,30.31,ESE,112,8.0,12.0,67,0.00,,,0.00,meteohub,2013-02-20 22:22:00,
2013-02-20 22:27:00,33.1,23.4,30.31,East,90,9.0,12.0,67,0.00,,,0.00,meteohub,2013-02-20 22:27:00,
2013-02-20 22:32:00,33.1,23.4,30.31,ESE,112,8.0,13.0,67,0.00,,,0.00,meteohub,2013-02-20 22:32:00,
2013-02-20 22:37:00,33.1,23.7,30.31,East,90,9.0,13.0,68,0.00,,,0.00,meteohub,2013-02-20 22:37:00,
2013-02-20 22:42:00,32.9,23.5,30.31,East,90,11.0,14.0,68,0.00,,,0.00,meteohub,2013-02-20 22:42:00,
2013-02-20 22:47:00,33.1,23.7,30.31,East,90,10.0,16.0,68,0.00,,,0.00,meteohub,2013-02-20 22:47:00,
2013-02-20 22:52:00,33.1,23.7,30.31,ESE,112,13.0,16.0,68,0.00,,,0.00,meteohub,2013-02-20 22:52:00,
2013-02-20 22:57:00,33.1,23.7,30.31,East,90,11.0,16.0,68,0.00,,,0.00,meteohub,2013-02-20 22:57:00,
2013-02-20 23:02:00,33.3,23.9,30.31,East,90,7.0,14.0,68,0.00,,,0.00,meteohub,2013-02-20 23:02:00,
2013-02-20 23:07:00,33.1,23.7,30.31,East,90,6.0,13.0,68,0.00,,,0.00,meteohub,2013-02-20 23:07:00,
2013-02-20 23:12:00,33.1,23.7,30.31,East,90,7.0,13.0,68,0.00,,,0.00,meteohub,2013-02-20 23:12:00,
2013-02-20 23:17:00,33.1,23.7,30.31,East,90,8.0,10.0,68,0.00,,,0.00,meteohub,2013-02-20 23:17:00,
2013-02-20 23:23:00,33.1,23.7,30.28,East,90,11.0,11.0,68,0.00,,,0.00,meteohub,2013-02-20 23:23:00,
2013-02-20 23:28:00,33.1,23.7,30.28,East,90,6.0,12.0,68,0.00,,,0.00,meteohub,2013-02-20 23:28:00,
2013-02-20 23:33:00,33.1,24.1,30.28,East,90,10.0,13.0,69,0.00,,,0.00,meteohub,2013-02-20 23:33:00,
2013-02-20 23:38:00,33.1,24.1,30.28,East,90,10.0,13.0,69,0.00,,,0.00,meteohub,2013-02-20 23:38:00,
2013-02-20 23:43:00,33.1,24.1,30.28,East,90,9.0,13.0,69,0.00,,,0.00,meteohub,2013-02-20 23:43:00,
2013-02-20 23:48:00,33.1,24.1,30.28,East,90,12.0,13.0,69,0.00,,,0.00,meteohub,2013-02-20 23:48:00,
2013-02-20 23:53:00,33.1,24.1,30.28,ESE,112,12.0,13.0,69,0.00,,,0.00,meteohub,2013-02-20 23:53:00,
2013-02-20 23:58:00,33.1,24.1,30.28,ESE,112,8.0,14.0,69,0.00,,,0.00,meteohub,2013-02-20 23:58:00,